Preview of NWS' New Version of Forecast
This preview is not operational and should not be used for support decisions.

Regional Weather Roundup (RWR)

Issued by National Weather Service (NWS)

                            
000
ASUS43 KDTX 171210
RWRMI 
MICHIGAN HOURLY REGIONAL WEATHER ROUNDUP
NATIONAL WEATHER SERVICE DETROIT/PONTIAC MI
700 AM EST SUN FEB 17 2019

NOTE: "FAIR" INDICATES FEW OR NO CLOUDS BELOW 12,000 FEET WITH NO
SIGNIFICANT WEATHER AND/OR OBSTRUCTION TO VISIBILITY.

MIZ047>049-052>055-059>063-066>070-074>076-081>083-171300-
SOUTHEAST LOWER MICHIGAN
  
CITY           SKY/WX    TMP DP  RH WIND       PRES   REMARKS
ADRIAN         CLOUDY    23  16  74 E14       30.00S WCI  11          
6HR MIN TEMP:  23; 6HR MAX TEMP:  24;                                

ALMA           CLOUDY    21  14  75 E10       30.05F WCI   9          
6HR MIN TEMP:   8; 6HR MAX TEMP:  21;                                

ANN ARBOR      CLOUDY    22  15  75 NE7       30.02R WCI  13          
BAD AXE        CLOUDY    23  16  74 E5        30.07F WCI  16          
6HR MIN TEMP:  17; 6HR MAX TEMP:  23;                                

CARO           CLOUDY    22  16  76 NE5       30.05F WCI  16          
DETROIT CITY   CLOUDY    22  14  71 E8        30.05S WCI  12          
6HR MIN TEMP:  22; 6HR MAX TEMP:  24;                                

DETROIT        CLOUDY    23  13  65 E9        30.03F WCI  13          
6HR MIN TEMP:  23; 6HR MAX TEMP:  25; 6HR PCP: TRACE;                

FLINT          CLOUDY    22  15  75 E12       30.03F WCI  10          
6HR MIN TEMP:  22; 6HR MAX TEMP:  22;                                

GROSSE ILE     CLOUDY    24  17  74 E7        30.03R WCI  16          
6HR MIN TEMP:  24; 6HR MAX TEMP:  25;                                

HILLSDALE      CLOUDY    23  17  77 E14G20    29.96R WCI  11          
6HR MIN TEMP:  23; 6HR MAX TEMP:  24;                                

HOWELL         CLOUDY    22  15  72 E9        30.02R WCI  12          
6HR MIN TEMP:  22; 6HR MAX TEMP:  23;                                


CITY           SKY/WX    TMP DP  RH WIND       PRES   REMARKS
JACKSON        CLOUDY    22  17  81 E8        29.99F WCI  12          
6HR MIN TEMP:  22; 6HR MAX TEMP:  24; 6HR PCP: TRACE;                

LAMBERTVILLE   CLOUDY    26  19  77 E8G17     30.01R WCI  17          
6HR MIN TEMP:  25; 6HR MAX TEMP:  26;                                

LANSING        CLOUDY    21  16  81 NE7       30.02S WCI  12          
6HR MIN TEMP:  13; 6HR MAX TEMP:  22;                                

LAPEER         CLOUDY    22  13  68 SE6       30.05S WCI  15          
6HR MIN TEMP:  22; 6HR MAX TEMP:  23;                                

MASON          CLOUDY    23  16  75 E7        30.01F WCI  15          
6HR MIN TEMP:  23; 6HR MAX TEMP:  24;                                

MONROE         CLOUDY    24  19  80 E9        30.01F WCI  15          
6HR MIN TEMP:  24; 6HR MAX TEMP:  25;                                

MT. CLEMENS    CLOUDY    22  16  77 E10         N/A  WCI  11          
6HR MIN TEMP:  22; 6HR MAX TEMP:  25;                                

PONTIAC        CLOUDY    21  14  74 E9        30.01F WCI  11          
6HR MIN TEMP:  21; 6HR MAX TEMP:  23;                                

PORT HOPE        N/A     24  17  74 E15       30.08F WCI  11          
6HR MIN TEMP:  24; 6HR MAX TEMP:  25;                                

PORT HURON     CLOUDY    21  14  73 E9        30.07F WCI  11          
TRI CITIES     CLOUDY    19  14  81 NE12      30.07  WCI   7          
6HR MIN TEMP:  17; 6HR MAX TEMP:  20;                                

MIDLAND        CLOUDY    19  13  80 CALM      30.07F                  
6HR MIN TEMP:  10; 6HR MAX TEMP:  19;                                

TROY           CLOUDY    23  13  66 E9        30.07R WCI  13          
SAGINAW HB     CLOUDY    21  18  86 N8        30.06S WCI  12          
$$
MIZ043>046-050>051-056>058-064>065-071>073-077>080-171300-
SOUTHWEST LOWER MICHIGAN
  
CITY           SKY/WX    TMP DP  RH WIND       PRES   REMARKS
BATTLE CREEK   CLOUDY    23  16  74 E9        29.99S WCI  13          
6HR MIN TEMP:  22; 6HR MAX TEMP:  24;                                

BENTON HARBOR  CLOUDY    25  17  72 E9        29.96S WCI  15          
6HR MIN TEMP:  24; 6HR MAX TEMP:  25;                                

BIG RAPIDS     MOCLDY    17  14  85 E6        30.02F WCI   9          
6HR MIN TEMP:   7; 6HR MAX TEMP:  17;                                

COLDWATER      CLOUDY    25  19  80 E10       29.97S WCI  15          
6HR MIN TEMP:  24; 6HR MAX TEMP:  25;                                

FREMONT        FAIR      19  13  77 E7        30.02R WCI  10          
6HR MIN TEMP:  13; 6HR MAX TEMP:  19;                                

HOLLAND        CLOUDY    21  14  74 E10       29.98F WCI  10          
6HR MIN TEMP:  17; 6HR MAX TEMP:  21;                                

GRAND RAPIDS   CLOUDY    19  13  77 E10       30.00F WCI   7          
6HR MIN TEMP:  13; 6HR MAX TEMP:  19;                                

IONIA          CLOUDY    19  13  78 NE8       30.02F WCI   9          
6HR MIN TEMP:  14; 6HR MAX TEMP:  19;                                

KALAMAZOO      CLOUDY    23  16  74 E9        29.97F WCI  13          
6HR MIN TEMP:  23; 6HR MAX TEMP:  24;                                

LUDINGTON      MOCLDY    18  12  79 NE6       30.05S WCI   9          
6HR MIN TEMP:  13; 6HR MAX TEMP:  18;                                

MARSHALL       CLOUDY    23  18  82 E9        29.98S WCI  13          
6HR MIN TEMP:  23; 6HR MAX TEMP:  24;                                

MOUNT PLEASANT MOCLDY    18  12  77 NE8       30.05F WCI   7          
6HR MIN TEMP:   8; 6HR MAX TEMP:  19;                                

MUSKEGON       MOCLDY    20  12  71 E14       30.00F WCI   7          
6HR MIN TEMP:  17; 6HR MAX TEMP:  20;                                

SOUTH HAVEN    CLOUDY    25  17  73 E8        29.96F WCI  16          
$$
MIZ016>042-171300-
NORTHERN LOWER MICHIGAN
  
CITY           SKY/WX    TMP DP  RH WIND       PRES   REMARKS
ALPENA         CLOUDY     4   0  83 CALM      30.14S                  
6HR MIN TEMP:  -4; 6HR MAX TEMP:   5;                                

BEAVER ISLAND  FAIR       7   5  90 CALM      30.14F                  
6HR MIN TEMP:   4; 6HR MAX TEMP:  14;                                

BELLAIRE       FAIR       2  -2  83 CALM      30.14F                  
6HR MIN TEMP:  -3; 6HR MAX TEMP:   2;                                

CADILLAC       FLURRIES  14  12  90 NE5       30.01F WCI   7          
CHARLEVOIX     FAIR       2  -1  84 CALM      30.16F                  
6HR MIN TEMP:   0; 6HR MAX TEMP:   6;                                

FRANKFORT      MOCLDY    17  11  77 E5        30.09F WCI  10          
GAYLORD        FAIR      -5  -9  83 CALM      30.06F                  
6HR MIN TEMP:  -9; 6HR MAX TEMP:  -1;                                

GRAYLING       CLOUDY    -3  -7  86 CALM      30.06F                  
6HR MIN TEMP: -16; 6HR MAX TEMP:  -3;                                

HARBOR SPRINGS FAIR       2  -1  85 E3        30.13F                  
HOUGHTON LAKE  FAIR       9   5  84 NE6       30.05F WCI  -1          
6HR MIN TEMP:   6; 6HR MAX TEMP:  12;                                

MANISTEE       FAIR      15  11  83 NE10      30.06F WCI   2          
OSCODA         CLOUDY    10   7  85 NW5       30.11S WCI   2          
6HR MIN TEMP:   2; 6HR MAX TEMP:  10;                                

PELLSTON       FAIR      -8 -13  78 CALM      30.14F                  
6HR MIN TEMP: -10; 6HR MAX TEMP:  -3;                                

ROGERS CITY    FLURRIES   3   0  87 CALM      30.14F                  
TRAVERSE CITY  CLOUDY    16  10  77 NE6       30.10F WCI   7          
6HR MIN TEMP:   6; 6HR MAX TEMP:  17;                                

$$
MIZ007>008-015-171300-
EASTERN UPPER MICHIGAN
  
CITY           SKY/WX    TMP DP  RH WIND       PRES   REMARKS
KINROSS        FLURRIES   3   0  87 E7        30.16S WCI  -9          
6HR MIN TEMP:  -1; 6HR MAX TEMP:   5; 6HR PCP: TRACE;                

MACKINAC ISLAN FLURRIES  12  10  90 NE7       30.15S WCI   2          
6HR MIN TEMP:   6; 6HR MAX TEMP:  14;                                

NEWBERRY       FLURRIES   9   8  92 MISG      30.14F                  
6HR MIN TEMP:   4; 6HR MAX TEMP:  15;                                

S. S. MARIE    FAIR       4  -1  80 NE6       30.18R WCI  -7          
6HR MIN TEMP:   3; 6HR MAX TEMP:   7;                                

MUNISING         N/A     17  13  84 CALM      30.14F                  
6HR MIN TEMP:  16; 6HR MAX TEMP:  17;                                

$$
MIZ004>006-011>014-085-171300-
CENTRAL UPPER MICHIGAN
  
CITY           SKY/WX    TMP DP  RH WIND       PRES   REMARKS
MANISTIQUE     CLOUDY    12   7  79 N3        30.13F                  
6HR MIN TEMP:   5; 6HR MAX TEMP:  14;                                

ESCANABA       CLOUDY     6   3  87 N5        30.13F WCI  -3          
6HR MIN TEMP:  -5; 6HR MAX TEMP:   6; 6HR PCP: TRACE;                

MENOMINEE      FLURRIES  17  11  77 NE10      30.09F WCI   5          
6HR MIN TEMP:  14; 6HR MAX TEMP:  18; 6HR PCP: TRACE;                

SAWYER-GWINN   FLURRIES  10   7  85 CALM      30.09F                  
$$
MIZ001>003-009>011-084-171300-
WESTERN UPPER MICHIGAN
  
CITY           SKY/WX    TMP DP  RH WIND       PRES   REMARKS
IRON MOUNTAIN  CLOUDY     4   0  83 CALM      30.07F                  
6HR MIN TEMP:  -5; 6HR MAX TEMP:   6;                                

HOUGHTON       FAIR       7   3  84 N6        30.12F WCI  -3          
6HR MIN TEMP:  -1; 6HR MAX TEMP:   8;                                

COPPER HARBOR    N/A      8   3  80 CALM      30.17S                  
6HR MIN TEMP:  -3; 6HR MAX TEMP:   8;                                

IRONWOOD       MOCLDY    -3  -5  90 E3        30.10S                  
6HR MIN TEMP:  -8; 6HR MAX TEMP:   9;                                

$$

ABBREVIATIONS USED IN REMARKS
   TC - TEMPERATURE IN CELSIUS
  WCI - WIND CHILL INDEX
   HX - HEAT INDEX
  VSB - VISIBILITY